Hourly Weather Kyslytsya

Today, 31 October, Saturday

Time Temperature Precipitation Wind Pressure Humidity
00:00 +11°C° 0 mm 6 mps 762 mmHg 77%
01:00 +10°C° 0 mm 6 mps 763 mmHg 76%
02:00 +10°C° 0 mm 6 mps 763 mmHg 75%
03:00 +10°C° 0 mm 5 mps 762 mmHg 75%
04:00 +9°C° 0 mm 5 mps 762 mmHg 74%
05:00 +9°C° 0 mm 5 mps 762 mmHg 74%
06:00 +9°C° 0 mm 5 mps 762 mmHg 73%
07:00 +10°C° 0 mm 4 mps 762 mmHg 71%
08:00 +10°C° 0 mm 4 mps 763 mmHg 70%
09:00 +11°C° 0 mm 4 mps 762 mmHg 65%
10:00 +12°C° 0 mm 4 mps 762 mmHg 60%
11:00 +13°C° 0 mm 4 mps 762 mmHg 54%
12:00 +12°C° 0.1 mm 5 mps 762 mmHg 57%
13:00 +11°C° 0.1 mm 6 mps 762 mmHg 60%
14:00 +10°C° 0.1 mm 7 mps 762 mmHg 63%
15:00 +10°C° 0.2 mm 6 mps 762 mmHg 65%
16:00 +9°C° 0.2 mm 5 mps 762 mmHg 67%
17:00 +10°C° 0.2 mm 4 mps 761 mmHg 69%
18:00 +10°C° 0.1 mm 4 mps 762 mmHg 68%
19:00 +10°C° 0.1 mm 4 mps 762 mmHg 67%
20:00 +10°C° 0.1 mm 4 mps 762 mmHg 66%
21:00 +10°C° 0.1 mm 4 mps 762 mmHg 68%
22:00 +8°C° 0.1 mm 5 mps 762 mmHg 70%
23:00 +8°C° 0.1 mm 5 mps 762 mmHg 71%

Tomorrow, 1 November, Sunday

Time Temperature Precipitation Wind Pressure Humidity
00:00 +8°C° 0 mm 6 mps 762 mmHg 72%
01:00 +7°C° 0 mm 6 mps 762 mmHg 72%
02:00 +7°C° 0 mm 6 mps 763 mmHg 72%
03:00 +7°C° 0 mm 6 mps 762 mmHg 73%
04:00 +6°C° 0 mm 7 mps 762 mmHg 74%
05:00 +6°C° 0 mm 7 mps 762 mmHg 74%
06:00 +8°C° 0 mm 7 mps 762 mmHg 74%
07:00 +8°C° 0 mm 7 mps 762 mmHg 74%
08:00 +8°C° 0 mm 7 mps 762 mmHg 74%
09:00 +8°C° 0.5 mm 7 mps 762 mmHg 77%
10:00 +7°C° 0.5 mm 8 mps 762 mmHg 79%
11:00 +7°C° 0.5 mm 8 mps 762 mmHg 81%
12:00 +7°C° 0.6 mm 8 mps 762 mmHg 80%
13:00 +9°C° 0.6 mm 8 mps 762 mmHg 79%
14:00 +9°C° 0.6 mm 8 mps 762 mmHg 77%
15:00 +9°C° 0.1 mm 7 mps 762 mmHg 76%
16:00 +9°C° 0.1 mm 7 mps 762 mmHg 75%
17:00 +9°C° 0.1 mm 6 mps 762 mmHg 74%
18:00 +9°C° 0.1 mm 6 mps 762 mmHg 74%
19:00 +9°C° 0.1 mm 5 mps 763 mmHg 73%
20:00 +10°C° 0.1 mm 5 mps 763 mmHg 72%
21:00 +9°C° 0 mm 5 mps 763 mmHg 73%
22:00 +9°C° 0 mm 5 mps 763 mmHg 73%
23:00 +8°C° 0 mm 5 mps 763 mmHg 74%

Day after tomorrow, 2 November, Monday

Time Temperature Precipitation Wind Pressure Humidity
00:00 +8°C° 0 mm 4 mps 763 mmHg 75%
01:00 +7°C° 0 mm 4 mps 763 mmHg 76%
02:00 +7°C° 0 mm 4 mps 763 mmHg 77%
03:00 +8°C° 0 mm 3 mps 763 mmHg 77%
04:00 +8°C° 0 mm 3 mps 763 mmHg 78%
05:00 +7°C° 0 mm 2 mps 763 mmHg 78%
06:00 +8°C° 0 mm 2 mps 764 mmHg 76%
07:00 +8°C° 0 mm 2 mps 764 mmHg 74%
08:00 +8°C° 0 mm 2 mps 764 mmHg 72%
09:00 +10°C° 0 mm 2 mps 764 mmHg 65%
10:00 +12°C° 0 mm 2 mps 764 mmHg 59%
11:00 +14°C° 0 mm 2 mps 764 mmHg 52%
12:00 +14°C° 0 mm 2 mps 764 mmHg 49%
13:00 +15°C° 0 mm 2 mps 764 mmHg 46%
14:00 +16°C° 0 mm 2 mps 763 mmHg 43%
15:00 +15°C° 0 mm 2 mps 763 mmHg 47%
16:00 +14°C° 0 mm 1 mps 764 mmHg 51%
17:00 +13°C° 0 mm 1 mps 764 mmHg 55%
18:00 +12°C° 0 mm 1 mps 764 mmHg 56%
19:00 +12°C° 0 mm 1 mps 764 mmHg 58%
20:00 +10°C° 0 mm 0 mps 764 mmHg 59%
21:00 +10°C° 0 mm 0 mps 764 mmHg 59%
22:00 +10°C° 0 mm 0 mps 764 mmHg 60%
23:00 +10°C° 0 mm 0 mps 764 mmHg 60%

3 November, Tuesday

Time Temperature Precipitation Wind Pressure Humidity
00:00 +10°C° 0 mm 0 mps 764 mmHg 60%
01:00 +10°C° 0 mm 0 mps 764 mmHg 59%
02:00 +10°C° 0 mm 0 mps 764 mmHg 59%
03:00 +9°C° 0 mm 0 mps 764 mmHg 60%
04:00 +9°C° 0 mm 0 mps 764 mmHg 61%
05:00 +9°C° 0 mm 0 mps 764 mmHg 62%
06:00 +9°C° 0 mm 0 mps 764 mmHg 61%
07:00 +10°C° 0 mm 0 mps 765 mmHg 60%
08:00 +10°C° 0 mm 0 mps 765 mmHg 59%
09:00 +11°C° 0 mm 0 mps 765 mmHg 55%
10:00 +12°C° 0 mm 0 mps 765 mmHg 51%
11:00 +13°C° 0 mm 0 mps 765 mmHg 47%
12:00 +14°C° 0 mm 0 mps 765 mmHg 46%
13:00 +14°C° 0 mm 0 mps 765 mmHg 44%
14:00 +15°C° 0 mm 1 mps 765 mmHg 43%
15:00 +15°C° 0 mm 1 mps 765 mmHg 46%
16:00 +14°C° 0 mm 1 mps 765 mmHg 48%
17:00 +13°C° 0 mm 1 mps 765 mmHg 51%
18:00 +13°C° 0 mm 1 mps 765 mmHg 52%
19:00 +12°C° 0 mm 0 mps 765 mmHg 54%
20:00 +12°C° 0 mm 0 mps 766 mmHg 56%
21:00 +13°C° 0 mm 1 mps 766 mmHg 58%
22:00 +13°C° 0 mm 1 mps 766 mmHg 60%
23:00 +13°C° 0 mm 1 mps 766 mmHg 62%

4 November, Wednesday

Time Temperature Precipitation Wind Pressure Humidity
00:00 +13°C° 0 mm 1 mps 766 mmHg 66%
01:00 +12°C° 0 mm 2 mps 766 mmHg 70%
02:00 +12°C° 0 mm 2 mps 766 mmHg 74%
03:00 +10°C° 0 mm 2 mps 766 mmHg 77%
04:00 +10°C° 0 mm 2 mps 766 mmHg 79%
05:00 +10°C° 0 mm 3 mps 766 mmHg 82%
06:00 +10°C° 0 mm 3 mps 766 mmHg 81%
07:00 +10°C° 0 mm 3 mps 767 mmHg 80%
08:00 +8°C° 0 mm 4 mps 767 mmHg 80%
09:00 +11°C° 0 mm 4 mps 767 mmHg 71%
10:00 +12°C° 0 mm 4 mps 768 mmHg 63%
11:00 +14°C° 0 mm 4 mps 768 mmHg 54%
12:00 +14°C° 0 mm 4 mps 768 mmHg 52%
13:00 +15°C° 0 mm 5 mps 768 mmHg 50%
14:00 +15°C° 0 mm 5 mps 767 mmHg 48%
15:00 +14°C° 0 mm 4 mps 768 mmHg 49%
16:00 +13°C° 0 mm 4 mps 768 mmHg 51%
17:00 +13°C° 0 mm 3 mps 768 mmHg 53%
18:00 +12°C° 0 mm 3 mps 769 mmHg 54%
19:00 +12°C° 0 mm 3 mps 769 mmHg 56%
20:00 +12°C° 0 mm 3 mps 770 mmHg 57%
21:00 +11°C° 0 mm 3 mps 770 mmHg 58%
22:00 +11°C° 0 mm 3 mps 770 mmHg 60%
23:00 +11°C° 0 mm 3 mps 770 mmHg 61%

5 November, Thursday

Time Temperature Precipitation Wind Pressure Humidity
00:00 +10°C° 0 mm 3 mps 771 mmHg 65%
01:00 +10°C° 0 mm 3 mps 771 mmHg 69%
02:00 +9°C° 0 mm 3 mps 771 mmHg 74%
03:00 +9°C° 0 mm 3 mps 771 mmHg 76%
04:00 +8°C° 0 mm 3 mps 771 mmHg 79%
05:00 +8°C° 0 mm 3 mps 771 mmHg 82%
06:00 +7°C° 0 mm 4 mps 771 mmHg 82%
07:00 +7°C° 0 mm 4 mps 772 mmHg 81%
08:00 +8°C° 0 mm 4 mps 772 mmHg 81%
09:00 +10°C° 0 mm 4 mps 772 mmHg 74%
10:00 +12°C° 0 mm 4 mps 772 mmHg 67%
11:00 +13°C° 0 mm 4 mps 772 mmHg 60%
12:00 +14°C° 0 mm 4 mps 771 mmHg 57%
13:00 +15°C° 0 mm 4 mps 771 mmHg 54%
14:00 +15°C° 0 mm 4 mps 771 mmHg 51%
15:00 +14°C° 0 mm 4 mps 771 mmHg 54%
16:00 +13°C° 0 mm 3 mps 771 mmHg 58%
17:00 +12°C° 0 mm 3 mps 771 mmHg 61%
18:00 +12°C° 0 mm 3 mps 771 mmHg 63%
19:00 +11°C° 0 mm 3 mps 771 mmHg 65%
20:00 +11°C° 0 mm 3 mps 771 mmHg 67%
21:00 +10°C° 0 mm 3 mps 771 mmHg 69%
22:00 +10°C° 0 mm 3 mps 771 mmHg 71%
23:00 +10°C° 0 mm 3 mps 771 mmHg 73%
Show more

We Need Your Consent

Meteoprog and our Service Providers may store and access personal data such as cookies, device identifiers or other similar technologies on your device and process such data to personalise content and ads, as well as provide social media features and to analyse the traffic.

  • Store and/or access information on your device

    Cookies, device identifiers or other information can be stored or accessed on your device for the purposes indicated above.

  • Personalised ads and content, ad and content measurement, audience insights, and products development

    Ads and content can be personalised based on a profile. More data can be added to better personalise ads and content. Ad and content performance can be measured. Insights about the audience who saw the ads and content can be derived. Such data can be used to develop or improve user’s experience, systems and software.

By clicking ‘I Agree’ you will allow the use of indicated cookies, device identifiers, web beacons or other similar technologies. Your settings can be changed in the browser on your device.

For certain purposes, legitimate interests may be relied on, rather than consent. You can read more about this in our Privacy and Cookie Policy.